Flag for U.S.A. Weather past 2 weeks in Tempe, Arizona, U.S.A.

60 °F

Partly cloudy.

Feels Like: 60 °F
Forecast: 52 / 70 °F
Wind: 14 mph from East

Location: Phoenix Sky Harbor International Airport

Current Time: Nov 25, 2015 at 6:26:42 AM

Latest Report: Nov 25, 2015 at 5:51 AM

Visibility: 10 mi

Pressure: 29.72 "Hg

Humidity: 38%

Dew point: 34 °F

Location of TempeLocation

Historic Weather in Tempe — Graph


Tempe temperature yesterday

Maximum temperature yesterday: 79 °F (at 3:51 PM)
Minimum temperature yesterday: 53 °F (at 5:51 AM)
Average temperature yesterday: 65 °F

Past Weeks' High & Low Weather Summary

High81 °F (Nov 21, 2:51 PM)90% (Nov 15, 7:51 PM)30.23 "Hg (Nov 15, 7:51 PM)
Low45 °F (Nov 17, 2:51 AM)9% (Nov 12, 3:51 PM)29.67 "Hg (Nov 16, 5:51 AM)
Average62 °F37%29.94 "Hg
* Reported Nov 10 4:51 AM — Nov 25 4:51 AM, Tempe, Weather by CustomWeather, © 2015

Note: Actual official high and low records may vary slightly from our data, if they occured in-between our weather recording intervals... More about our weather records


Tempe weather history for previous 24 hours

Time TempWeatherWind HumidityBarometerVisibility
4:51 AM
Wed, Nov 25
59 °FPartly cloudy.7 mph41%29.73 "Hg10 mi
3:51 AM59 °FMostly cloudy.7 mph41%29.75 "Hg10 mi
2:51 AM58 °FPartly cloudy.6 mph43%29.76 "Hg10 mi
1:51 AM60 °FPartly cloudy.13 mph38%29.75 "Hg10 mi
12:51 AM61 °FPassing clouds.12 mph35%29.75 "Hg10 mi
11:51 PM
Tue, Nov 24
62 °FPassing clouds.12 mph35%29.78 "Hg10 mi
10:51 PM60 °FPassing clouds.8 mph42%29.79 "Hg10 mi
9:51 PM63 °FPassing clouds.7 mph38%29.79 "Hg10 mi
8:51 PM63 °FPassing clouds.5 mph38%29.80 "Hg10 mi
7:51 PM69 °FClear.No wind29%29.80 "Hg10 mi
6:51 PM70 °FPassing clouds.No wind27%29.81 "Hg10 mi
5:51 PM74 °FPassing clouds.No wind21%29.80 "Hg10 mi
4:51 PM78 °FScattered clouds.6 mph17%29.81 "Hg10 mi
3:51 PM79 °FPassing clouds.7 mph17%29.82 "Hg10 mi
2:51 PM77 °FPassing clouds.7 mph20%29.83 "Hg10 mi
1:51 PM77 °FPassing clouds.6 mph21%29.86 "Hg10 mi
12:51 PM74 °FPassing clouds.3 mph23%29.90 "Hg10 mi
11:51 AM72 °FPassing clouds.5 mph26%29.94 "Hg10 mi
10:51 AM69 °FPassing clouds.5 mph31%29.97 "Hg10 mi
9:51 AM65 °FPassing clouds.7 mph33%29.98 "Hg10 mi
8:51 AM59 °FPassing clouds.10 mph42%29.97 "Hg10 mi
7:51 AM55 °FPassing clouds.7 mph49%29.96 "Hg10 mi
6:51 AM54 °FPassing clouds.3 mph51%29.94 "Hg10 mi
Weather by CustomWeather, © 2015

See weather overviewHow to use our weather pages